This is the latest recevied weather packets stored in our database for station/object N7SWJ. If no packets are shown the sender has not sent any weather packets the latest 1 day(s).
| Time | Temp. | Humidity | Pressure | Rain* | Wind** | Luminosity | Snow |
|---|---|---|---|---|---|---|---|
| 1777977696 | 2.78° C | 93% | 1015.5 hPa | 1.27 mm | 1.34 m/s, 63° | 0 W/m² | - |
| 1777977392 | 3.33° C | 93% | 1015.5 hPa | 0 mm | 0 m/s | 0 W/m² | - |
| 1777977090 | 3.33° C | 92% | 1015.3 hPa | 0 mm | 0.89 m/s, 53° | 0 W/m² | - |
| 1777976787 | 3.33° C | 92% | 1015.2 hPa | 0 mm | 0.45 m/s, 59° | 0 W/m² | - |
| 1777976485 | 3.89° C | 92% | 1015.2 hPa | 1.78 mm | 0.89 m/s, 70° | 0 W/m² | - |
| 1777976183 | 3.89° C | 92% | 1015.3 hPa | 1.78 mm | 0.89 m/s, 251° | 0 W/m² | - |
| 1777975879 | 3.89° C | 92% | 1015 hPa | 0 mm | 0.89 m/s, 64° | 0 W/m² | - |
| 1777975576 | 4.44° C | 91% | 1015.2 hPa | 1.27 mm | 0.89 m/s, 23° | 0 W/m² | - |
| 1777975273 | 4.44° C | 91% | 1015 hPa | 1.27 mm | 1.34 m/s, 26° | 0 W/m² | - |
| 1777974969 | 5° C | 90% | 1015 hPa | 1.78 mm | 2.68 m/s, 85° | 0 W/m² | - |
| 1777974665 | 5° C | 90% | 1015.1 hPa | 1.78 mm | 0 m/s | 0 W/m² | - |
| 1777974362 | 5° C | 90% | 1014.8 hPa | 1.78 mm | 0.45 m/s, 35° | 0 W/m² | - |
| 1777974058 | 5° C | 90% | 1014.8 hPa | 1.78 mm | 0.45 m/s, 60° | 0 W/m² | - |
| 1777973754 | 5° C | 90% | 1014.8 hPa | 0 mm | 0.89 m/s, 70° | 0 W/m² | - |
| 1777973452 | 5.56° C | 90% | 1015.1 hPa | 0 mm | 0.45 m/s, 55° | 0 W/m² | - |
| 1777973149 | 5.56° C | 89% | 1014.8 hPa | 0 mm | 0.89 m/s, 9° | 0 W/m² | - |
| 1777972848 | 5.56° C | 89% | 1015 hPa | 1.27 mm | 0.89 m/s, 56° | 0 W/m² | - |
| 1777972544 | 6.11° C | 89% | 1015.1 hPa | 1.27 mm | 0.89 m/s, 42° | 0 W/m² | - |
| 1777972243 | 6.11° C | 89% | 1014.7 hPa | 1.78 mm | 0 m/s | 0 W/m² | - |
| 1777971940 | 6.11° C | 88% | 1014.4 hPa | 1.78 mm | 0.45 m/s, 75° | 0 W/m² | - |
| 1777971638 | 6.11° C | 88% | 1014.4 hPa | 0 mm | 0.45 m/s, 36° | 0 W/m² | - |
| 1777971335 | 6.11° C | 88% | 1014.5 hPa | 0 mm | 0.45 m/s, 68° | 0 W/m² | - |
| 1777971034 | 6.11° C | 88% | 1014.7 hPa | 0 mm | 0.89 m/s, 51° | 0 W/m² | - |
| 1777970731 | 6.11° C | 89% | 1014.3 hPa | 0 mm | 0.45 m/s, 60° | 0 W/m² | - |
| 1777970429 | 6.11° C | 88% | 1014.4 hPa | 0 mm | 0 m/s | 0 W/m² | - |
* Rain latest hour (hover to see other rain measurements)
** Current wind speed in m/s (hover to see current wind gust speed)